Time,TemperatureF,DewpointF,PressureIn,WindDirection,WindDirectionDegrees,WindSpeedMPH,WindSpeedGustMPH,Humidity,HourlyPrecipIn,Conditions,Clouds,dailyrainin,SoftwareType,DateUTC
2013-02-06 00:02:00,62.0,52.0,30.06,ESE,119,0.0,-999.0,70,-99.99,,,-99.99,,2013-02-06 05:02:00,
2013-02-06 00:12:00,62.0,52.0,30.06,ESE,119,0.0,-999.0,70,-99.99,,,-99.99,,2013-02-06 05:12:00,
2013-02-06 00:22:00,62.0,53.0,30.06,ESE,119,0.0,-999.0,72,-99.99,,,-99.99,,2013-02-06 05:22:00,
2013-02-06 00:32:00,61.0,52.0,30.06,ESE,119,0.0,-999.0,73,-99.99,,,-99.99,,2013-02-06 05:32:00,
2013-02-06 00:41:00,61.0,52.0,30.06,ESE,119,0.0,-999.0,73,-99.99,,,-99.99,,2013-02-06 05:41:00,
2013-02-06 00:53:00,61.0,52.0,30.06,ESE,119,0.0,-999.0,72,-99.99,,,-99.99,,2013-02-06 05:53:00,
2013-02-06 01:01:00,61.0,52.0,30.06,ESE,119,0.0,-999.0,72,-99.99,,,-99.99,,2013-02-06 06:01:00,
2013-02-06 01:11:00,61.0,52.0,30.06,ESE,119,0.0,-999.0,72,-99.99,,,-99.99,,2013-02-06 06:11:00,
2013-02-06 01:22:00,60.0,51.0,30.05,SE,134,0.0,-999.0,71,-99.99,,,-99.99,,2013-02-06 06:22:00,
2013-02-06 01:32:00,60.0,51.0,30.05,SE,134,0.0,-999.0,71,-99.99,,,-99.99,,2013-02-06 06:32:00,
2013-02-06 01:42:00,60.0,51.0,30.05,SE,134,0.0,-999.0,71,-99.99,,,-99.99,,2013-02-06 06:42:00,
2013-02-06 01:51:00,61.0,51.0,30.05,ESE,120,0.0,-999.0,70,-99.99,,,-99.99,,2013-02-06 06:51:00,
2013-02-06 02:02:00,61.0,51.0,30.05,ESE,120,0.0,-999.0,70,-99.99,,,-99.99,,2013-02-06 07:02:00,
2013-02-06 02:11:00,61.0,51.0,30.05,ESE,120,0.0,-999.0,70,-99.99,,,-99.99,,2013-02-06 07:11:00,
2013-02-06 02:22:00,61.0,52.0,30.04,ESE,120,0.0,-999.0,71,-99.99,,,-99.99,,2013-02-06 07:22:00,
2013-02-06 02:32:00,60.0,51.0,30.04,ESE,120,0.0,-999.0,72,-99.99,,,-99.99,,2013-02-06 07:32:00,
2013-02-06 02:42:00,60.0,51.0,30.04,ESE,120,0.0,-999.0,72,-99.99,,,-99.99,,2013-02-06 07:42:00,
2013-02-06 02:51:00,60.0,52.0,30.04,ESE,120,0.0,-999.0,75,-99.99,,,-99.99,,2013-02-06 07:51:00,
2013-02-06 03:01:00,60.0,51.0,30.04,ESE,120,0.0,-999.0,73,-99.99,,,-99.99,,2013-02-06 08:01:00,
2013-02-06 03:11:00,60.0,51.0,30.04,ESE,120,0.0,-999.0,73,-99.99,,,-99.99,,2013-02-06 08:11:00,
2013-02-06 03:21:00,61.0,52.0,30.03,ESE,120,0.0,-999.0,72,-99.99,,,-99.99,,2013-02-06 08:21:00,
2013-02-06 03:32:00,60.0,51.0,30.03,ESE,120,0.0,-999.0,72,-99.99,,,-99.99,,2013-02-06 08:32:00,
2013-02-06 03:42:00,60.0,51.0,30.03,ESE,120,0.0,-999.0,72,-99.99,,,-99.99,,2013-02-06 08:42:00,
2013-02-06 03:53:00,60.0,51.0,30.04,ESE,120,0.0,-999.0,71,-99.99,,,-99.99,,2013-02-06 08:53:00,
2013-02-06 04:02:00,60.0,53.0,30.04,ESE,120,1.0,-999.0,78,-99.99,,,-99.99,,2013-02-06 09:02:00,
2013-02-06 04:11:00,60.0,53.0,30.04,ESE,120,1.0,-999.0,78,-99.99,,,-99.99,,2013-02-06 09:11:00,
2013-02-06 04:21:00,60.0,53.0,30.04,ESE,120,0.0,-999.0,78,-99.99,,,-99.99,,2013-02-06 09:21:00,
2013-02-06 04:32:00,60.0,52.0,30.04,ESE,120,0.0,-999.0,76,-99.99,,,-99.99,,2013-02-06 09:32:00,
2013-02-06 04:42:00,60.0,52.0,30.04,ESE,120,0.0,-999.0,76,-99.99,,,-99.99,,2013-02-06 09:42:00,
2013-02-06 04:52:00,60.0,52.0,30.04,ESE,120,0.0,-999.0,75,-99.99,,,-99.99,,2013-02-06 09:52:00,
2013-02-06 05:01:00,60.0,52.0,30.05,ESE,120,0.0,-999.0,75,-99.99,,,-99.99,,2013-02-06 10:01:00,
2013-02-06 05:11:00,60.0,52.0,30.05,ESE,120,0.0,-999.0,75,-99.99,,,-99.99,,2013-02-06 10:11:00,
2013-02-06 05:21:00,60.0,53.0,30.04,ESE,120,0.0,-999.0,78,-99.99,,,-99.99,,2013-02-06 10:21:00,
2013-02-06 05:32:00,60.0,53.0,30.04,ENE,78,2.0,-999.0,78,-99.99,,,-99.99,,2013-02-06 10:32:00,
2013-02-06 05:42:00,60.0,53.0,30.04,ENE,78,2.0,-999.0,78,-99.99,,,-99.99,,2013-02-06 10:42:00,
2013-02-06 05:52:00,59.0,53.0,30.05,ENE,78,0.0,-999.0,80,-99.99,,,-99.99,,2013-02-06 10:52:00,
2013-02-06 06:01:00,59.0,54.0,30.05,ENE,78,0.0,-999.0,82,-99.99,,,-99.99,,2013-02-06 11:01:00,
2013-02-06 06:11:00,59.0,54.0,30.05,ENE,78,0.0,-999.0,82,-99.99,,,-99.99,,2013-02-06 11:11:00,
2013-02-06 06:22:00,59.0,54.0,30.05,ENE,78,0.0,-999.0,84,-99.99,,,-99.99,,2013-02-06 11:22:00,
2013-02-06 06:32:00,59.0,54.0,30.06,ENE,78,0.0,-999.0,85,-99.99,,,-99.99,,2013-02-06 11:32:00,
2013-02-06 06:42:00,59.0,54.0,30.06,ENE,78,0.0,-999.0,85,-99.99,,,-99.99,,2013-02-06 11:42:00,
2013-02-06 06:52:00,58.0,54.0,30.06,ENE,78,0.0,-999.0,85,-99.99,,,-99.99,,2013-02-06 11:52:00,
2013-02-06 07:02:00,58.0,54.0,30.07,ENE,78,0.0,-999.0,86,-99.99,,,-99.99,,2013-02-06 12:02:00,
2013-02-06 07:12:00,58.0,54.0,30.07,ENE,78,0.0,-999.0,86,-99.99,,,-99.99,,2013-02-06 12:12:00,
2013-02-06 07:22:00,58.0,53.0,30.07,ENE,78,0.0,-999.0,83,-99.99,,,-99.99,,2013-02-06 12:22:00,
2013-02-06 07:32:00,58.0,53.0,30.07,ENE,78,0.0,-999.0,82,-99.99,,,-99.99,,2013-02-06 12:32:00,
2013-02-06 07:42:00,58.0,53.0,30.07,ENE,78,0.0,-999.0,82,-99.99,,,-99.99,,2013-02-06 12:42:00,
2013-02-06 07:52:00,59.0,54.0,30.07,NE,49,3.0,-999.0,82,-99.99,,,-99.99,,2013-02-06 12:52:00,
2013-02-06 08:02:00,59.0,53.0,30.08,NE,35,3.0,-999.0,81,-99.99,,,-99.99,,2013-02-06 13:02:00,
2013-02-06 08:12:00,59.0,53.0,30.08,NE,35,3.0,-999.0,81,-99.99,,,-99.99,,2013-02-06 13:12:00,
2013-02-06 08:22:00,60.0,54.0,30.08,NE,40,2.0,-999.0,80,-99.99,,,-99.99,,2013-02-06 13:22:00,
2013-02-06 08:32:00,60.0,53.0,30.09,NE,42,1.0,-999.0,78,-99.99,,,-99.99,,2013-02-06 13:32:00,
2013-02-06 08:42:00,60.0,53.0,30.09,NE,42,1.0,-999.0,78,-99.99,,,-99.99,,2013-02-06 13:42:00,
2013-02-06 08:52:00,61.0,53.0,30.09,ENE,60,2.0,-999.0,76,-99.99,,,-99.99,,2013-02-06 13:52:00,
2013-02-06 09:02:00,62.0,54.0,30.09,ENE,74,1.0,-999.0,75,-99.99,,,-99.99,,2013-02-06 14:02:00,
2013-02-06 09:11:00,62.0,54.0,30.09,ENE,74,1.0,-999.0,75,-99.99,,,-99.99,,2013-02-06 14:11:00,
2013-02-06 09:22:00,62.0,53.0,30.10,ESE,103,1.0,-999.0,72,-99.99,,,-99.99,,2013-02-06 14:22:00,
2013-02-06 09:32:00,63.0,54.0,30.10,East,79,2.0,-999.0,72,-99.99,,,-99.99,,2013-02-06 14:32:00,
2013-02-06 09:42:00,63.0,54.0,30.10,East,79,2.0,-999.0,72,-99.99,,,-99.99,,2013-02-06 14:42:00,
2013-02-06 09:52:00,65.0,55.0,30.11,ENE,68,1.0,-999.0,71,-99.99,,,-99.99,,2013-02-06 14:52:00,
2013-02-06 10:02:00,65.0,55.0,30.12,ENE,78,1.0,-999.0,69,-99.99,,,-99.99,,2013-02-06 15:02:00,
2013-02-06 10:11:00,66.0,55.0,30.12,ESE,103,1.0,-999.0,67,-99.99,,,-99.99,,2013-02-06 15:11:00,
2013-02-06 10:21:00,66.0,55.0,30.12,ESE,103,1.0,-999.0,67,-99.99,,,-99.99,,2013-02-06 15:21:00,
2013-02-06 10:32:00,67.0,56.0,30.12,ENE,76,1.0,-999.0,67,-99.99,,,-99.99,,2013-02-06 15:32:00,
2013-02-06 10:42:00,67.0,56.0,30.12,ENE,76,1.0,-999.0,67,-99.99,,,-99.99,,2013-02-06 15:42:00,
2013-02-06 10:52:00,67.0,56.0,30.12,ENE,66,1.0,-999.0,67,-99.99,,,-99.99,,2013-02-06 15:52:00,
2013-02-06 11:01:00,67.0,56.0,30.12,ENE,66,1.0,-999.0,67,-99.99,,,-99.99,,2013-02-06 16:01:00,
2013-02-06 11:11:00,67.0,56.0,30.12,ENE,66,1.0,-999.0,67,-99.99,,,-99.99,,2013-02-06 16:11:00,
2013-02-06 11:21:00,68.0,56.0,30.12,NNE,17,2.0,-999.0,66,-99.99,,,-99.99,,2013-02-06 16:21:00,
2013-02-06 11:32:00,68.0,56.0,30.12,North,9,2.0,-999.0,65,-99.99,,,-99.99,,2013-02-06 16:32:00,
2013-02-06 11:42:00,68.0,56.0,30.12,North,9,2.0,-999.0,65,-99.99,,,-99.99,,2013-02-06 16:42:00,
2013-02-06 11:52:00,68.0,56.0,30.12,NNE,19,2.0,-999.0,66,-99.99,,,-99.99,,2013-02-06 16:52:00,
2013-02-06 12:02:00,68.0,57.0,30.12,NNE,27,3.0,-999.0,67,-99.99,,,-99.99,,2013-02-06 17:02:00,
2013-02-06 12:11:00,68.0,57.0,30.12,NNE,27,3.0,-999.0,67,-99.99,,,-99.99,,2013-02-06 17:11:00,
2013-02-06 12:22:00,69.0,57.0,30.11,NNE,31,3.0,-999.0,66,-99.99,,,-99.99,,2013-02-06 17:22:00,
2013-02-06 12:32:00,69.0,57.0,30.11,NNE,15,4.0,-999.0,65,-99.99,,,-99.99,,2013-02-06 17:32:00,
2013-02-06 12:42:00,69.0,57.0,30.10,NE,53,4.0,-999.0,65,-99.99,,,-99.99,,2013-02-06 17:42:00,
2013-02-06 12:52:00,69.0,57.0,30.10,NE,53,4.0,-999.0,65,-99.99,,,-99.99,,2013-02-06 17:52:00,
2013-02-06 13:02:00,70.0,58.0,30.10,NE,42,3.0,-999.0,65,-99.99,,,-99.99,,2013-02-06 18:02:00,
2013-02-06 13:11:00,71.0,58.0,30.09,NNE,31,2.0,-999.0,64,-99.99,,,-99.99,,2013-02-06 18:11:00,
2013-02-06 13:23:00,71.0,58.0,30.09,NNE,31,2.0,-999.0,64,-99.99,,,-99.99,,2013-02-06 18:23:00,
2013-02-06 13:32:00,72.0,58.0,30.09,NE,46,4.0,-999.0,61,-99.99,,,-99.99,,2013-02-06 18:32:00,
2013-02-06 13:42:00,72.0,58.0,30.09,NE,46,4.0,-999.0,61,-99.99,,,-99.99,,2013-02-06 18:42:00,
2013-02-06 13:52:00,72.0,58.0,30.08,NE,34,2.0,-999.0,61,-99.99,,,-99.99,,2013-02-06 18:52:00,
2013-02-06 14:02:00,73.0,59.0,30.08,East,80,1.0,-999.0,61,-99.99,,,-99.99,,2013-02-06 19:02:00,
2013-02-06 14:11:00,73.0,59.0,30.08,East,80,1.0,-999.0,61,-99.99,,,-99.99,,2013-02-06 19:11:00,
2013-02-06 14:21:00,74.0,59.0,30.07,North,355,3.0,-999.0,59,-99.99,,,-99.99,,2013-02-06 19:21:00,
2013-02-06 14:32:00,74.0,58.0,30.06,NE,56,4.0,-999.0,57,-99.99,,,-99.99,,2013-02-06 19:32:00,
2013-02-06 14:42:00,74.0,58.0,30.06,NE,56,4.0,-999.0,57,-99.99,,,-99.99,,2013-02-06 19:42:00,
2013-02-06 14:52:00,74.0,58.0,30.06,East,79,4.0,-999.0,57,-99.99,,,-99.99,,2013-02-06 19:52:00,
2013-02-06 15:01:00,74.0,58.0,30.06,NE,40,4.0,-999.0,58,-99.99,,,-99.99,,2013-02-06 20:01:00,
2013-02-06 15:11:00,74.0,58.0,30.06,NNE,19,3.0,-999.0,58,-99.99,,,-99.99,,2013-02-06 20:11:00,
2013-02-06 15:21:00,74.0,58.0,30.06,NNE,19,3.0,-999.0,58,-99.99,,,-99.99,,2013-02-06 20:21:00,
2013-02-06 15:32:00,75.0,58.0,30.05,NE,50,2.0,-999.0,56,-99.99,,,-99.99,,2013-02-06 20:32:00,
2013-02-06 15:42:00,75.0,58.0,30.05,NE,50,2.0,-999.0,56,-99.99,,,-99.99,,2013-02-06 20:42:00,
2013-02-06 15:52:00,75.0,57.0,30.05,NE,55,4.0,-999.0,54,-99.99,,,-99.99,,2013-02-06 20:52:00,
2013-02-06 16:02:00,75.0,57.0,30.05,NE,55,4.0,-999.0,54,-99.99,,,-99.99,,2013-02-06 21:02:00,
2013-02-06 16:11:00,75.0,57.0,30.05,NE,55,4.0,-999.0,54,-99.99,,,-99.99,,2013-02-06 21:11:00,
2013-02-06 16:21:00,75.0,58.0,30.05,NE,46,2.0,-999.0,55,-99.99,,,-99.99,,2013-02-06 21:21:00,
2013-02-06 16:32:00,74.0,57.0,30.05,NE,43,3.0,-999.0,56,-99.99,,,-99.99,,2013-02-06 21:32:00,
2013-02-06 16:42:00,74.0,57.0,30.05,NE,43,3.0,-999.0,56,-99.99,,,-99.99,,2013-02-06 21:42:00,
2013-02-06 16:52:00,73.0,57.0,30.05,North,11,2.0,-999.0,57,-99.99,,,-99.99,,2013-02-06 21:52:00,
2013-02-06 17:01:00,73.0,57.0,30.05,NE,40,3.0,-999.0,57,-99.99,,,-99.99,,2013-02-06 22:01:00,
2013-02-06 17:11:00,73.0,57.0,30.05,NE,40,3.0,-999.0,57,-99.99,,,-99.99,,2013-02-06 22:11:00,
2013-02-06 17:22:00,73.0,58.0,30.05,North,355,2.0,-999.0,59,-99.99,,,-99.99,,2013-02-06 22:22:00,
2013-02-06 17:32:00,72.0,58.0,30.06,NNE,22,3.0,-999.0,61,-99.99,,,-99.99,,2013-02-06 22:32:00,
2013-02-06 17:42:00,72.0,58.0,30.06,NNE,22,3.0,-999.0,61,-99.99,,,-99.99,,2013-02-06 22:42:00,
2013-02-06 17:52:00,72.0,60.0,30.06,NNE,15,3.0,-999.0,67,-99.99,,,-99.99,,2013-02-06 22:52:00,
2013-02-06 18:01:00,72.0,62.0,30.05,NE,36,4.0,-999.0,70,-99.99,,,-99.99,,2013-02-06 23:01:00,
2013-02-06 18:11:00,72.0,62.0,30.05,NE,36,4.0,-999.0,70,-99.99,,,-99.99,,2013-02-06 23:11:00,
2013-02-06 18:21:00,71.0,61.0,30.05,NE,43,5.0,-999.0,71,-99.99,,,-99.99,,2013-02-06 23:21:00,
2013-02-06 18:32:00,70.0,61.0,30.06,ENE,58,5.0,-999.0,72,-99.99,,,-99.99,,2013-02-06 23:32:00,
2013-02-06 18:42:00,70.0,61.0,30.06,ENE,58,5.0,-999.0,72,-99.99,,,-99.99,,2013-02-06 23:42:00,
2013-02-06 18:52:00,70.0,61.0,30.06,NE,49,4.0,-999.0,72,-99.99,,,-99.99,,2013-02-06 23:52:00,
2013-02-06 19:01:00,70.0,60.0,30.06,ENE,67,5.0,-999.0,71,-99.99,,,-99.99,,2013-02-07 00:01:00,
2013-02-06 19:11:00,70.0,60.0,30.06,ENE,67,5.0,-999.0,71,-99.99,,,-99.99,,2013-02-07 00:11:00,
2013-02-06 19:21:00,69.0,60.0,30.06,NE,44,3.0,-999.0,73,-99.99,,,-99.99,,2013-02-07 00:21:00,
2013-02-06 19:32:00,69.0,60.0,30.06,ENE,61,4.0,-999.0,74,-99.99,,,-99.99,,2013-02-07 00:32:00,
2013-02-06 19:42:00,69.0,60.0,30.06,ENE,61,4.0,-999.0,74,-99.99,,,-99.99,,2013-02-07 00:42:00,
2013-02-06 19:52:00,69.0,60.0,30.06,ENE,62,4.0,-999.0,74,-99.99,,,-99.99,,2013-02-07 00:52:00,
2013-02-06 20:01:00,69.0,61.0,30.07,NE,49,4.0,-999.0,75,-99.99,,,-99.99,,2013-02-07 01:01:00,
2013-02-06 20:11:00,69.0,61.0,30.07,NE,49,4.0,-999.0,75,-99.99,,,-99.99,,2013-02-07 01:11:00,
2013-02-06 20:21:00,68.0,61.0,30.08,ENE,69,4.0,-999.0,77,-99.99,,,-99.99,,2013-02-07 01:21:00,
2013-02-06 20:32:00,68.0,61.0,30.08,NE,44,3.0,-999.0,77,-99.99,,,-99.99,,2013-02-07 01:32:00,
2013-02-06 20:42:00,68.0,61.0,30.08,NE,44,3.0,-999.0,77,-99.99,,,-99.99,,2013-02-07 01:42:00,
2013-02-06 20:52:00,68.0,61.0,30.08,NE,49,4.0,-999.0,78,-99.99,,,-99.99,,2013-02-07 01:52:00,
2013-02-06 21:01:00,67.0,60.0,30.08,ENE,63,5.0,-999.0,79,-99.99,,,-99.99,,2013-02-07 02:01:00,
2013-02-06 21:11:00,67.0,60.0,30.08,ENE,63,5.0,-999.0,79,-99.99,,,-99.99,,2013-02-07 02:11:00,
2013-02-06 21:21:00,67.0,61.0,30.09,East,82,4.0,-999.0,80,-99.99,,,-99.99,,2013-02-07 02:21:00,
2013-02-06 21:32:00,67.0,61.0,30.09,ENE,63,4.0,-999.0,80,-99.99,,,-99.99,,2013-02-07 02:32:00,
2013-02-06 21:42:00,67.0,61.0,30.09,ENE,63,4.0,-999.0,80,-99.99,,,-99.99,,2013-02-07 02:42:00,
2013-02-06 21:52:00,67.0,61.0,30.09,ENE,63,4.0,-999.0,80,-99.99,,,-99.99,,2013-02-07 02:52:00,
2013-02-06 22:02:00,67.0,61.0,30.10,ENE,65,4.0,-999.0,81,-99.99,,,-99.99,,2013-02-07 03:02:00,
2013-02-06 22:11:00,67.0,61.0,30.10,ENE,65,4.0,-999.0,81,-99.99,,,-99.99,,2013-02-07 03:11:00,
2013-02-06 22:21:00,67.0,61.0,30.10,ENE,78,4.0,-999.0,81,-99.99,,,-99.99,,2013-02-07 03:21:00,
2013-02-06 22:31:00,66.0,60.0,30.10,ENE,68,3.0,-999.0,81,-99.99,,,-99.99,,2013-02-07 03:31:00,
2013-02-06 22:42:00,66.0,60.0,30.10,ENE,68,3.0,-999.0,81,-99.99,,,-99.99,,2013-02-07 03:42:00,
2013-02-06 22:52:00,66.0,60.0,30.10,East,88,2.0,-999.0,82,-99.99,,,-99.99,,2013-02-07 03:52:00,
2013-02-06 23:01:00,66.0,60.0,30.09,ENE,62,3.0,-999.0,82,-99.99,,,-99.99,,2013-02-07 04:01:00,
2013-02-06 23:11:00,66.0,60.0,30.09,ENE,62,3.0,-999.0,82,-99.99,,,-99.99,,2013-02-07 04:11:00,
2013-02-06 23:22:00,66.0,61.0,30.09,ENE,57,3.0,-999.0,84,-99.99,,,-99.99,,2013-02-07 04:22:00,
2013-02-06 23:32:00,65.0,61.0,30.09,ENE,74,3.0,-999.0,88,-99.99,,,-99.99,,2013-02-07 04:32:00,
2013-02-06 23:42:00,65.0,61.0,30.09,ENE,74,3.0,-999.0,88,-99.99,,,-99.99,,2013-02-07 04:42:00,
2013-02-06 23:53:00,64.0,61.0,30.09,ENE,69,2.0,-999.0,89,-99.99,,,-99.99,,2013-02-07 04:53:00,